Theta_e
366 368 368 368 369 369 369 370 368 367 367 366 365 364 363 361 359 357 355 352 351 350 348 346 347 347 346 345 345 345 345 345 344 344 344 344 343 343 343 342 341 340 340 339 338 339 339 338 338 339 340 338 338 337 335 336 338 338 340 340 338 337 335 331 327 326 330 333 332 332 334 336 334 337 336 336 336 337 338 339 340 339 339 339 339
366 368 368 368 368 368 368 367 366 366 365 365 364 363 362 359 359 357 354 353 351 348 348 346 348 348 345 346 346 345 345 346 343 343 343 343 343 343 342 342 341 340 339 339 339 339 339 338 337 338 339 338 338 336 335 334 335 333 333 334 333 333 335 332 329 326 325 330 330 334 333 334 331 336 334 333 334 337 337 338 338 338 337 338 338
364 369 368 368 369 368 366 366 365 365 363 362 360 359 359 359 357 355 352 350 351 348 348 347 349 350 347 345 347 346 346 346 344 342 343 344 343 341 341 341 340 338 337 338 338 339 338 337 337 337 337 337 337 336 336 336 335 335 335 335 334 334 335 335 333 329 327 327 331 330 331 333 332 333 335 335 336 336 335 335 335 336 337 337 337
361 367 367 366 367 367 365 364 362 361 359 359 357 359 356 356 355 353 350 347 347 346 349 347 350 348 345 346 347 346 345 344 342 342 343 343 342 341 341 340 339 338 338 338 338 338 337 336 336 336 337 336 336 336 336 337 337 337 336 337 337 337 338 338 336 334 331 327 331 330 331 331 332 334 334 335 333 333 333 334 335 334 335 336 336
359 364 365 363 364 364 362 362 361 359 357 356 354 353 352 353 353 351 348 344 346 348 350 351 350 348 345 345 345 345 343 343 342 342 343 343 343 341 341 341 339 339 339 340 339 339 337 336 336 336 336 335 335 334 336 337 338 337 336 336 334 335 335 336 336 337 335 332 330 332 332 332 333 334 335 332 332 332 333 332 332 332 333 333 333
359 362 364 361 362 362 361 361 359 358 356 355 354 353 351 352 351 349 346 342 346 346 348 346 345 346 346 345 343 342 342 342 343 342 342 343 343 342 341 341 339 340 340 339 339 339 338 338 337 337 336 335 334 334 337 336 338 338 338 338 338 338 336 335 336 336 335 333 334 330 330 327 329 332 334 334 330 329 330 331 332 332 332 331 331
360 361 362 360 361 360 360 360 360 357 357 355 353 353 350 349 347 344 343 342 344 343 345 345 345 344 343 344 342 341 341 341 343 345 344 344 344 344 341 340 340 340 340 338 337 337 338 338 339 338 337 336 335 335 336 337 337 338 338 337 337 336 334 334 334 334 333 333 334 330 326 328 329 327 332 335 333 331 328 326 327 330 331 330 329
360 361 362 361 361 359 361 362 361 359 357 355 353 352 350 349 348 346 344 344 342 341 343 342 342 341 341 342 342 342 341 341 344 346 345 345 344 343 343 341 340 339 340 339 339 337 337 337 335 335 336 337 338 338 339 338 339 339 339 338 336 334 333 332 333 333 332 332 328 324 326 327 329 331 332 334 330 328 328 326 324 325 327 330 331
362 361 361 361 360 362 363 362 362 358 354 354 353 352 350 349 348 349 347 345 341 342 344 342 340 340 340 341 341 341 340 340 343 344 345 346 344 342 342 342 341 339 339 338 339 339 339 338 336 335 337 339 343 344 343 341 341 336 337 337 335 333 332 331 331 332 332 331 331 331 327 326 326 326 326 327 325 324 328 329 327 328 328 326 329
363 362 360 360 362 363 362 362 360 357 354 355 351 351 348 348 348 347 347 345 346 345 344 341 338 338 338 338 338 339 339 341 338 331 336 343 343 343 342 343 342 341 339 339 339 339 339 339 339 341 345 343 344 341 335 332 331 335 337 336 335 333 332 330 329 329 329 327 326 326 326 323 323 326 325 326 329 329 327 327 325 326 326 325 327
363 362 361 362 362 362 361 360 359 356 354 353 347 349 349 349 348 347 346 346 344 343 342 338 337 338 337 336 335 335 338 340 330 327 329 331 341 342 342 343 344 342 340 340 339 339 340 340 343 342 346 342 342 336 333 330 330 328 326 326 330 334 332 329 328 329 327 327 326 326 325 326 327 327 326 327 327 326 325 327 325 324 323 320 319
362 362 362 363 363 361 360 360 359 356 354 353 348 348 347 345 347 347 347 345 343 342 339 340 340 340 338 337 335 336 339 331 326 326 327 326 330 342 341 341 340 339 339 339 339 339 339 339 338 342 345 345 344 344 339 332 329 329 327 326 325 325 325 333 332 329 329 327 326 325 326 325 327 328 326 325 325 327 329 328 325 323 322 321 321
364 364 363 363 363 362 360 359 358 357 354 353 350 347 347 346 345 344 344 344 342 340 340 340 340 339 339 338 335 337 338 330 325 324 325 325 325 331 341 342 339 338 339 340 340 342 343 342 343 340 340 340 339 339 340 342 334 328 328 327 326 325 323 322 323 333 332 330 328 326 328 328 325 327 329 328 330 326 326 324 324 324 323 321 320
364 364 364 364 363 362 360 358 357 357 354 352 351 347 345 345 344 342 343 341 339 338 339 340 339 339 339 339 339 340 341 330 324 322 322 322 324 328 342 343 341 338 339 340 342 345 344 338 335 334 337 340 340 342 341 340 341 342 340 339 336 333 329 322 321 320 326 332 331 329 331 333 328 328 330 330 327 324 322 322 324 322 322 321 322
362 365 364 364 363 362 360 357 356 356 354 351 351 347 345 345 344 342 342 340 337 337 338 337 339 340 340 340 340 340 340 327 321 320 319 319 321 326 341 343 342 341 341 343 346 346 343 342 339 339 338 340 341 339 343 342 341 338 335 333 333 332 332 330 331 333 333 331 332 331 330 329 329 329 329 329 328 327 326 324 323 322 322 323 323
362 365 364 363 362 361 359 357 356 355 353 351 349 347 346 345 344 344 342 343 342 340 339 337 337 339 341 341 340 340 340 324 321 319 318 317 321 335 339 341 341 341 342 345 345 344 344 344 342 340 340 341 335 329 332 340 336 334 332 332 332 331 330 331 326 328 330 330 331 329 328 327 318 324 324 323 324 326 325 325 324 323 321 318 317
363 364 363 362 360 360 358 356 355 354 353 350 348 346 345 344 344 344 339 336 335 336 336 337 338 339 340 340 340 341 341 328 318 317 316 316 322 338 340 341 341 340 342 343 343 343 342 341 340 339 339 339 328 319 321 326 332 331 331 330 330 329 328 330 325 320 320 318 315 315 314 313 314 312 311 311 319 322 321 319 318 319 317 314 314
362 364 362 362 360 359 358 356 355 353 352 349 348 346 345 345 343 342 337 334 331 331 332 333 335 338 338 339 339 341 340 329 315 314 314 315 326 340 340 338 339 341 341 340 340 341 338 339 338 338 337 339 316 318 318 325 330 330 330 328 327 327 327 327 327 330 319 315 315 315 315 315 315 313 313 312 312 313 322 316 319 318 315 315 312
362 362 361 361 361 359 357 356 355 353 352 350 349 347 344 343 342 341 338 336 333 334 333 333 334 335 336 337 337 338 339 328 313 314 313 313 328 340 339 340 340 338 337 337 338 338 336 336 336 334 335 328 312 316 315 322 328 329 329 328 325 325 326 327 325 324 324 324 326 327 326 322 328 330 328 320 316 319 325 323 322 319 316 315 314
363 363 361 361 360 357 355 355 355 353 352 351 350 348 347 345 343 339 336 335 334 334 334 335 335 334 336 337 338 339 336 340 332 311 311 311 319 340 341 339 336 335 335 332 329 332 336 338 335 325 316 313 310 309 311 312 326 329 329 327 325 324 326 327 326 324 323 322 323 323 323 324 324 326 324 323 322 323 321 321 321 319 317 315 314
362 361 361 358 357 356 355 354 354 354 353 351 349 347 346 344 341 337 335 335 335 336 336 336 337 336 337 339 340 339 338 342 336 311 310 311 314 325 341 338 336 334 332 334 332 331 332 335 336 318 312 310 307 305 305 307 311 326 330 328 327 322 318 325 323 322 322 323 323 321 321 322 322 322 321 322 320 320 319 319 319 318 316 314 312
360 360 359 357 356 355 354 354 354 353 353 350 347 346 346 345 341 337 337 336 336 336 336 336 336 337 340 340 340 341 339 339 341 314 310 309 310 318 336 335 332 331 330 331 331 331 332 333 334 318 309 307 306 302 302 304 308 321 330 306 305 309 322 322 322 322 321 320 319 319 319 318 318 319 319 318 317 319 317 317 317 316 315 314 312
358 358 357 356 355 354 354 353 352 352 351 350 348 346 344 343 341 340 338 337 337 337 337 338 338 338 339 342 342 342 342 335 326 329 310 308 308 313 320 327 321 333 330 330 331 331 334 335 329 310 307 304 302 301 302 303 306 320 305 304 306 305 312 318 320 320 319 318 318 318 317 317 316 316 316 315 316 318 316 316 315 314 316 317 318
356 356 355 355 354 353 352 351 351 351 349 347 346 345 342 340 339 339 339 338 338 337 337 339 340 338 339 338 338 340 341 339 323 320 317 308 306 308 309 312 316 328 332 332 333 332 334 334 327 306 302 298 299 301 303 306 318 304 303 305 305 310 315 318 319 318 318 316 316 315 316 316 315 314 314 316 315 318 316 317 318 319 319 319 320
355 354 353 353 352 351 349 349 349 348 347 346 345 343 342 339 337 339 340 339 338 336 336 339 337 334 335 335 336 337 339 337 332 321 314 309 307 306 308 309 311 310 328 331 332 329 309 301 299 300 300 298 298 301 305 306 305 304 304 304 311 316 318 318 318 318 316 315 315 316 315 315 314 314 317 318 318 317 318 317 318 318 319 320 320
353 352 352 351 350 348 345 346 347 348 347 345 343 342 341 338 336 338 340 339 339 337 337 335 337 338 335 336 336 335 335 335 329 323 318 313 310 308 309 310 313 314 319 323 311 307 307 305 302 302 303 306 315 321 323 323 312 310 309 311 316 316 319 318 318 316 315 314 313 312 312 313 313 316 317 317 316 314 314 314 314 314 316 317 317
351 351 350 348 348 347 345 343 343 343 344 342 342 342 340 339 337 337 339 337 338 338 338 337 335 334 337 337 336 334 334 333 332 328 327 323 319 313 314 315 310 313 320 324 317 319 319 320 320 314 315 313 317 316 318 317 318 315 315 315 317 318 318 317 316 316 314 311 311 312 313 313 315 316 314 312 311 312 314 313 312 313 315 316 317
349 349 347 345 345 345 344 341 341 340 341 340 338 338 338 337 336 337 337 336 337 338 337 336 334 334 334 335 334 331 331 332 331 327 324 324 323 321 322 322 323 325 325 328 328 328 325 315 314 321 321 321 321 322 321 321 320 319 319 319 317 318 315 313 310 311 313 314 314 314 314 314 313 311 310 309 310 311 313 312 312 313 315 316 314
348 346 344 343 342 343 342 340 340 339 339 339 332 329 337 339 338 339 339 339 340 340 340 336 335 335 337 335 332 330 331 329 329 319 326 317 326 327 329 328 327 328 320 315 330 328 326 323 323 321 321 319 319 318 317 317 317 317 319 318 317 316 316 314 314 312 313 313 312 311 310 310 309 309 309 309 310 309 312 311 313 315 316 316 314
346 343 342 342 341 340 340 339 340 340 338 334 329 320 304 298 308 328 332 312 303 298 306 332 334 338 336 336 338 334 332 332 315 308 307 305 297 295 297 298 304 317 308 306 321 324 322 321 320 320 319 318 317 316 315 315 316 316 317 315 314 313 314 313 312 311 313 310 310 310 309 308 307 308 308 307 309 309 309 309 312 315 314 313 314
343 342 341 340 339 339 339 339 340 340 339 334 331 327 324 314 295 294 301 302 298 293 295 297 304 314 333 333 318 300 304 306 303 302 301 297 295 295 296 295 295 296 300 319 320 321 321 319 318 319 318 318 316 314 315 315 315 315 315 315 315 314 312 312 310 310 310 309 308 308 307 306 307 308 307 307 307 307 308 310 311 314 314 314 314
342 339 340 340 340 341 341 342 341 340 338 336 334 330 326 325 320 299 293 296 297 294 293 296 297 303 303 317 320 322 304 298 299 298 297 296 295 294 293 293 292 294 295 299 322 321 319 318 318 318 317 315 315 316 315 315 316 316 315 313 313 313 312 310 309 308 307 307 307 306 306 306 307 307 306 306 305 306 307 308 309 310 312 314 314
344 341 342 341 339 341 339 341 340 338 336 335 335 334 330 327 327 324 314 295 294 294 294 294 295 298 301 303 307 310 306 298 295 295 295 294 293 292 292 291 292 292 296 313 320 319 319 318 317 317 316 315 315 315 316 315 315 314 313 312 312 312 311 311 310 309 309 308 306 306 306 306 306 305 305 306 305 306 307 307 308 310 312 313 314
344 343 341 340 339 339 339 338 337 337 338 337 336 335 334 333 331 326 321 319 316 304 296 294 294 295 292 294 296 296 295 294 294 294 293 293 292 293 296 299 290 291 298 318 318 317 317 316 316 315 315 315 315 315 315 315 315 313 313 312 312 311 310 311 310 309 308 307 306 306 306 305 305 305 306 305 306 306 307 306 307 308 311 312 312
343 341 341 341 340 340 340 340 338 338 336 336 336 335 335 332 329 327 326 327 326 327 325 319 303 295 308 300 294 294 294 294 294 294 293 293 294 294 297 313 314 313 313 317 319 318 317 317 315 315 316 315 315 315 315 315 314 313 312 311 310 308 308 307 306 307 306 306 306 306 305 304 306 305 306 305 305 305 306 306 306 307 309 310 310
342 340 341 340 342 340 340 341 339 338 337 337 338 335 334 331 328 326 324 327 328 327 325 323 317 302 295 292 292 293 292 292 293 293 293 293 293 296 317 316 317 316 316 317 317 317 317 317 316 315 315 315 315 314 315 313 313 312 311 309 308 306 307 306 306 308 308 306 306 306 304 306 306 305 305 305 306 306 305 305 305 306 308 309 309
338 337 339 340 340 339 339 340 340 338 333 334 333 334 332 331 328 328 328 329 330 328 326 321 317 312 308 306 298 293 292 292 292 292 292 293 291 308 318 318 318 318 317 317 316 316 316 316 316 315 315 314 314 313 312 312 312 312 308 307 307 305 305 306 306 305 306 306 306 307 307 306 306 306 305 304 305 306 304 305 306 306 307 307 307
336 334 336 339 340 341 340 339 334 329 333 333 334 333 330 330 330 330 328 331 329 327 324 320 315 315 313 311 308 307 301 293 292 293 293 293 303 314 318 320 319 318 316 316 317 316 315 315 316 315 315 314 314 314 312 312 311 309 308 308 307 307 304 300 304 309 310 309 306 307 305 305 305 305 305 305 305 304 304 305 306 305 306 306 309
339 326 324 328 331 336 335 334 331 331 331 330 331 331 328 330 330 329 330 330 327 326 324 321 319 319 318 313 313 311 309 312 314 314 314 314 315 316 318 319 319 318 317 316 316 316 315 314 315 315 314 314 313 313 310 310 309 308 307 305 305 306 306 307 307 308 306 306 305 305 306 305 305 305 305 305 305 305 305 305 306 305 305 306 308
335 333 329 326 330 330 332 332 330 329 331 329 330 330 329 329 328 328 329 329 327 326 324 322 321 323 321 317 316 315 316 317 316 317 317 317 317 318 319 319 319 317 316 317 316 315 314 315 314 313 313 313 312 311 310 309 308 306 305 304 303 304 306 306 305 305 305 305 305 305 304 305 305 305 305 305 305 305 305 305 305 305 305 305 308
335 334 330 328 328 331 332 331 330 331 331 331 330 329 329 330 330 329 328 327 327 326 326 326 325 326 323 319 307 309 319 319 319 320 318 318 319 319 319 318 318 317 317 316 316 315 315 315 315 314 313 313 312 310 309 307 305 303 302 303 303 302 304 305 305 305 305 304 304 304 304 304 304 304 304 305 303 304 305 305 305 305 305 306 308
332 331 332 332 331 332 330 330 331 332 332 330 330 329 328 328 328 327 327 327 327 327 327 327 327 328 314 302 301 300 317 322 320 320 320 320 320 318 318 318 318 318 318 317 316 316 315 315 315 313 312 312 310 308 307 305 304 302 301 302 303 304 304 304 305 305 305 304 304 304 304 304 304 304 305 302 305 305 305 305 305 305 305 307 308
331 330 330 329 329 329 329 330 331 330 329 329 330 329 328 329 329 327 326 326 326 326 326 326 326 325 317 305 306 301 318 321 321 320 319 319 319 319 319 318 318 318 318 318 316 316 315 314 313 312 312 310 310 308 306 304 302 301 301 302 303 304 304 304 304 304 304 304 303 303 304 304 304 304 304 304 305 305 305 305 305 305 305 307 308
330 332 330 330 331 330 330 330 329 329 329 328 328 327 326 326 325 325 326 326 327 325 325 325 325 322 317 311 309 312 317 320 320 319 320 319 319 318 318 318 318 318 318 317 316 315 314 314 313 312 313 310 309 308 304 302 301 300 301 302 303 303 303 303 304 304 304 303 302 303 304 304 303 304 304 303 304 304 304 305 305 305 304 305 306
331 330 330 328 329 330 329 330 329 329 326 325 325 326 326 326 325 324 322 323 324 325 325 324 323 322 319 318 317 317 318 319 319 319 318 318 319 318 318 317 317 316 317 316 316 316 315 314 314 312 310 310 308 306 304 302 302 301 300 301 303 302 303 304 304 304 303 304 303 303 303 303 303 303 303 303 304 305 304 305 304 304 304 305 304
329 329 328 327 326 326 326 327 326 327 327 326 325 326 325 324 323 322 322 321 321 321 322 323 323 322 322 322 320 318 319 319 319 319 319 319 318 316 315 315 316 316 315 315 315 315 314 313 312 311 311 309 307 305 303 303 301 301 301 301 300 301 303 303 304 303 304 304 303 303 303 303 303 303 302 303 304 304 304 305 306 304 305 304 304
327 326 324 324 325 324 327 326 325 324 323 322 322 321 321 321 322 320 321 321 319 320 318 319 320 319 320 320 321 321 321 319 320 321 321 319 319 318 318 318 315 315 314 315 316 314 313 312 311 311 310 309 308 306 304 302 302 301 302 301 301 301 302 303 305 305 304 305 304 304 303 303 303 304 303 303 304 304 304 304 304 304 305 304 304
326 324 324 324 324 323 323 323 320 319 321 319 320 320 318 318 318 319 319 319 318 318 318 318 318 318 318 319 320 319 319 320 321 320 321 320 319 318 318 318 315 314 314 315 314 313 312 312 311 311 310 309 307 306 304 303 303 303 302 302 302 302 295 294 300 302 306 305 304 303 304 304 303 303 303 304 304 304 303 302 303 304 304 304 303
323 323 322 322 322 321 320 319 318 318 317 317 315 316 317 317 318 318 318 317 317 317 317 316 316 317 317 317 318 318 318 318 319 318 318 318 318 318 318 317 315 314 313 313 313 313 313 312 311 311 310 309 308 306 305 305 303 303 303 303 299 289 287 287 293 299 295 300 303 305 305 304 304 303 303 304 305 304 303 303 303 303 304 304 303
322 322 322 321 320 319 320 319 318 318 317 319 318 318 317 318 317 316 316 317 316 317 317 316 316 316 316 316 316 317 318 318 317 318 317 317 318 317 317 316 315 314 314 313 313 313 312 313 312 311 310 309 308 307 305 304 304 303 304 300 287 286 286 285 288 289 296 301 302 304 304 304 304 303 303 304 304 304 303 302 303 303 303 303 303
321 321 320 319 320 319 319 319 318 319 318 319 318 317 315 314 313 314 313 313 312 314 313 314 317 316 317 317 316 316 317 318 318 317 317 317 318 316 316 316 315 314 314 314 313 313 313 312 311 310 309 308 308 306 306 305 305 305 294 287 286 286 286 289 295 291 289 292 300 302 303 304 304 303 303 303 302 302 301 302 302 303 304 302 303
Wind_Speed
17 15 14 14 14 14 14 14 14 12 12 13 12 11 10 10 10 9 10 10 10 11 11 10 10 10 9 9 9 8 7 7 7 7 7 7 6 6 6 6 6 6 6 7 7 6 7 8 8 8 7 6 5 6 5 5 5 6 6 6 7 6 7 8 10 10 10 9 9 9 9 10 9 9 10 10 9 9 9 10 11 10 10 10 10
16 15 13 13 15 15 15 14 14 13 14 13 12 11 10 10 10 10 11 10 10 10 11 10 9 9 8 8 8 8 7 7 7 7 7 7 7 6 7 8 8 7 7 7 7 6 7 8 8 8 7 6 6 6 5 6 6 6 6 6 7 7 6 8 9 9 11 10 10 9 9 9 10 9 10 10 10 9 10 10 10 10 10 10 10
17 14 13 14 16 16 16 14 13 13 14 13 14 12 10 10 10 11 10 10 11 11 11 11 9 8 7 6 6 6 6 7 7 8 8 8 8 8 7 7 8 8 8 8 8 7 8 8 8 8 6 6 6 6 6 6 6 6 7 7 7 8 8 8 9 10 11 10 10 11 10 9 9 9 10 10 9 9 11 10 10 10 9 10 10
16 15 15 16 17 15 14 13 15 15 15 12 11 9 11 11 12 12 12 11 11 11 11 11 11 12 12 11 9 8 7 8 8 9 8 8 8 8 8 8 8 8 8 8 9 8 9 9 8 8 7 6 6 6 5 6 6 6 7 7 7 8 8 8 9 10 10 11 10 10 10 10 9 9 9 9 10 10 10 10 11 11 11 11 11
16 16 17 18 18 16 16 15 15 16 16 15 18 20 18 16 14 15 14 13 12 10 8 9 9 9 9 10 10 8 8 9 9 9 8 8 8 8 8 9 9 9 9 9 9 10 10 10 9 8 7 7 7 7 6 6 6 7 7 6 7 7 8 8 9 9 10 11 10 9 10 10 10 10 9 10 9 10 10 11 12 12 11 12 12
17 17 17 18 17 18 17 16 16 18 18 18 18 17 16 15 15 14 14 14 11 9 10 9 9 9 8 9 9 10 9 10 10 10 10 9 8 8 9 10 10 10 10 10 10 10 10 10 10 9 8 8 8 7 6 7 7 7 7 7 8 8 9 10 9 9 10 11 11 11 10 11 10 10 9 9 10 10 10 11 11 11 11 12 11
16 16 17 17 16 17 17 17 16 16 16 14 14 15 15 15 14 13 13 14 13 13 12 11 9 8 8 9 10 10 11 12 11 10 9 9 9 9 10 10 10 10 10 11 11 11 11 10 10 9 9 9 9 8 7 7 6 8 8 8 8 8 9 9 9 10 11 11 10 11 11 10 10 11 10 10 11 10 11 12 12 11 11 12 12
15 15 15 15 14 16 16 16 15 13 12 12 12 12 13 13 13 13 14 14 16 16 14 11 8 9 10 9 9 9 9 10 10 10 9 9 9 10 10 10 11 11 11 11 11 11 11 11 11 10 10 9 9 8 8 7 7 8 8 7 7 9 9 9 9 9 10 10 11 12 10 10 9 10 10 10 10 10 10 11 13 12 12 12 12
15 15 14 14 14 14 13 11 10 11 14 14 13 12 10 11 12 12 13 14 13 15 13 12 10 9 9 10 10 9 10 11 9 9 9 10 10 11 11 11 11 11 12 12 12 11 11 11 11 11 10 9 7 6 6 4 6 8 9 8 9 9 9 9 9 10 9 10 10 10 11 10 11 11 11 11 12 12 11 11 12 12 13 13 12
14 14 15 14 12 11 11 11 12 13 13 11 14 11 6 7 8 10 12 13 11 11 12 12 12 12 11 11 10 10 10 9 10 13 10 9 10 10 9 10 11 11 12 12 12 11 11 11 10 12 6 4 6 7 8 8 7 8 8 8 8 9 9 10 10 9 10 11 11 11 12 12 11 12 13 13 12 12 13 12 12 13 13 14 13
14 14 14 13 11 12 12 12 13 14 14 13 16 16 10 6 10 11 12 12 12 12 12 13 13 12 12 12 13 12 11 9 13 14 14 13 10 10 10 9 10 11 11 11 11 10 9 10 10 9 8 7 7 9 10 11 11 10 11 11 8 7 9 10 10 10 10 11 11 10 11 13 12 12 13 13 13 13 12 11 13 13 13 14 14
15 14 14 13 11 12 12 13 13 13 13 15 16 16 14 13 11 11 11 12 11 12 13 13 13 12 12 13 13 12 11 11 13 14 14 14 12 10 10 10 10 10 10 10 9 9 9 7 10 7 5 5 6 6 10 13 12 11 11 11 12 12 12 10 9 10 10 11 11 11 11 12 12 12 12 13 12 11 11 12 13 13 14 13 13
13 13 13 12 11 12 13 14 13 12 13 15 14 16 16 15 14 13 13 13 12 13 13 13 12 11 11 11 12 12 11 12 14 14 14 14 14 11 9 10 11 10 10 9 9 8 7 8 4 6 7 11 9 10 10 8 12 13 13 12 12 13 14 16 15 11 9 10 10 11 11 12 13 12 12 13 13 14 13 13 13 13 13 14 14
12 12 12 12 12 12 13 13 13 12 13 14 14 16 16 17 18 16 13 12 13 13 12 12 11 11 11 11 11 11 11 11 14 15 14 14 13 11 10 10 10 10 10 10 9 8 3 3 1 7 9 10 9 10 8 9 8 7 8 9 10 12 16 16 15 15 12 9 10 10 10 9 11 12 14 13 14 13 13 13 13 14 14 15 17
12 11 12 11 11 11 12 13 13 13 13 15 14 16 18 17 16 14 13 14 15 14 12 11 10 10 10 11 11 11 10 11 13 14 13 13 13 11 8 7 7 8 8 9 8 5 4 4 4 6 9 9 6 9 8 7 6 7 9 10 10 11 10 9 8 8 8 9 10 10 11 11 11 12 11 11 12 12 11 13 15 14 15 16 16
12 11 11 11 12 12 12 13 13 13 15 15 15 15 16 16 16 13 10 9 8 8 8 9 9 10 10 10 10 11 9 12 13 12 12 13 10 6 6 6 6 6 7 6 4 5 5 5 5 6 9 9 3 5 2 4 7 8 9 10 10 10 10 5 4 4 9 10 9 10 10 11 11 13 12 11 10 10 9 10 10 11 12 14 16
12 12 11 12 12 12 13 13 14 13 14 16 15 14 14 14 13 10 10 9 9 8 9 7 6 8 9 8 9 9 9 9 13 13 12 12 9 6 5 5 5 6 6 4 4 4 4 4 6 8 8 8 7 7 6 1 6 8 9 10 9 9 9 8 8 11 10 9 11 11 12 13 15 16 17 17 12 9 10 11 11 11 13 16 17
12 11 11 11 11 12 12 13 13 14 13 14 14 13 13 11 13 10 12 11 11 10 9 9 10 9 10 8 8 11 11 8 13 13 14 14 11 6 5 5 6 5 5 5 4 2 4 8 8 7 7 4 9 7 6 2 6 8 9 10 10 10 10 9 9 5 12 13 13 14 14 14 15 17 17 18 16 10 9 12 12 12 15 15 16
11 11 11 10 11 11 12 12 12 12 13 14 14 14 13 12 11 10 11 10 9 7 7 8 10 11 10 11 11 13 12 8 12 13 12 13 10 7 6 6 6 5 5 4 3 3 4 6 8 8 4 6 8 7 4 4 6 8 8 9 10 10 9 10 10 12 10 10 9 9 10 12 11 11 11 14 18 15 11 12 12 13 15 16 17
10 9 10 10 11 11 11 12 12 12 12 12 12 12 12 12 12 12 11 10 10 9 9 11 13 13 13 13 12 12 13 8 10 13 14 15 14 7 6 6 6 5 4 4 5 5 6 5 6 8 5 6 6 6 5 5 6 7 8 8 8 9 8 9 9 10 11 12 11 12 12 13 13 12 13 13 11 10 11 12 12 13 15 16 17
9 9 9 10 10 11 10 11 12 11 10 10 11 11 11 11 11 10 12 11 11 9 8 10 11 11 12 11 10 11 10 9 11 15 14 14 13 10 7 6 5 5 2 3 4 5 5 4 4 8 7 6 6 6 6 5 6 6 7 7 4 4 6 9 11 12 11 11 12 12 12 12 12 12 11 10 9 9 9 11 11 12 13 15 15
10 10 10 10 10 11 10 10 10 9 9 11 11 11 11 10 10 11 10 10 10 10 9 9 11 12 10 10 9 8 6 5 8 9 8 6 8 6 3 4 3 2 2 4 5 5 5 4 6 6 8 7 6 6 5 5 7 7 1 6 5 7 5 7 8 9 9 9 11 12 12 12 12 12 11 10 10 10 10 11 12 13 13 13 14
9 9 9 9 9 9 9 10 9 8 9 10 11 10 9 9 8 8 9 10 10 10 10 10 10 9 8 8 7 7 6 7 10 9 12 14 14 10 5 3 3 3 5 6 6 7 4 2 6 10 8 8 7 6 6 6 7 5 3 3 4 3 5 7 8 9 9 10 10 11 12 12 11 10 10 10 10 11 11 12 13 13 13 13 14
9 9 8 8 7 7 8 8 8 7 9 9 10 10 10 10 8 8 8 9 8 8 8 9 9 9 9 7 8 8 6 6 7 9 7 8 9 9 7 4 1 4 5 6 5 5 3 3 5 9 8 8 6 6 6 8 4 3 2 1 3 5 7 8 8 8 9 10 11 12 11 9 9 10 10 10 11 11 12 13 13 13 13 13 14
9 8 8 8 7 7 7 7 8 8 9 9 9 11 12 11 9 8 9 10 9 9 9 9 9 9 9 9 9 7 6 5 6 8 11 9 9 9 7 7 4 1 4 5 3 3 9 10 10 8 7 6 7 7 6 6 7 5 5 4 6 7 8 8 9 9 10 10 11 9 9 9 9 10 10 11 12 12 12 11 11 12 13 14 14
9 9 9 8 8 7 7 8 8 7 7 7 8 10 11 11 10 9 9 10 9 8 8 9 8 6 8 9 9 7 6 6 5 5 6 7 8 8 7 5 4 3 3 5 10 9 7 8 8 8 8 6 6 5 5 6 10 9 8 8 8 8 7 6 6 7 8 8 9 9 9 9 9 10 10 11 10 10 10 11 11 12 12 11 12
9 8 8 7 7 7 8 7 6 7 6 7 8 9 9 9 8 8 8 8 7 8 7 8 9 9 7 8 7 7 6 7 7 6 5 5 4 6 6 5 4 4 4 4 5 5 6 4 2 2 3 5 6 7 4 6 5 7 7 8 8 7 5 6 6 7 8 8 8 8 9 10 10 10 9 9 10 10 9 10 11 11 11 11 12
9 9 9 7 7 7 7 7 7 7 7 7 9 9 9 9 8 8 8 8 8 7 7 8 8 8 8 7 7 6 6 6 7 8 6 6 7 6 6 6 7 6 7 8 7 6 6 6 4 4 4 4 5 6 7 7 6 7 7 7 6 6 6 7 8 8 8 8 8 9 9 9 9 9 9 9 10 10 10 10 10 11 11 11 12
8 9 9 8 7 7 7 8 8 8 8 7 5 4 1 3 4 5 6 4 1 3 7 7 7 7 8 9 10 9 9 10 10 10 11 11 10 10 10 9 8 8 3 6 6 5 5 5 5 6 6 6 6 6 7 7 7 7 7 8 8 6 6 6 6 6 6 7 8 9 9 9 9 9 9 9 9 10 9 10 10 10 11 10 11
9 9 8 8 8 8 7 8 8 7 8 6 6 6 8 11 10 5 4 8 9 9 8 2 0 5 7 7 5 7 9 7 10 14 13 11 9 10 10 12 10 7 9 5 2 6 7 7 7 7 6 6 7 8 8 7 7 7 7 6 6 8 7 6 6 6 6 7 8 8 8 8 9 9 9 10 10 10 10 10 10 10 11 11 12
7 7 7 7 8 8 8 8 8 7 8 7 6 6 4 9 14 12 8 6 7 9 8 8 10 10 3 6 5 11 9 10 15 15 14 12 12 12 12 11 11 10 9 6 6 6 6 7 7 7 7 7 8 8 8 8 7 8 8 8 7 6 6 6 5 5 7 8 8 7 8 8 8 9 9 10 10 11 10 9 10 9 10 11 11
7 8 8 8 9 8 8 8 9 8 7 7 8 6 5 5 4 9 10 8 9 9 9 8 6 3 7 3 7 4 5 6 15 14 13 13 12 12 11 10 8 9 4 3 5 7 7 7 8 8 8 8 8 8 8 8 8 7 7 7 6 5 5 6 4 5 7 7 7 7 7 8 8 8 9 10 10 10 10 10 10 10 10 11 10
7 7 7 9 8 8 7 7 7 7 8 8 8 9 7 6 6 5 6 11 12 11 11 11 9 6 8 8 5 5 9 9 11 13 13 14 13 12 11 9 8 6 5 4 6 6 7 7 7 7 6 7 7 7 7 8 7 6 6 6 6 6 5 4 4 6 7 6 7 7 7 7 8 9 9 9 9 10 10 10 10 10 10 11 11
7 6 8 8 7 7 6 7 8 8 8 8 8 8 9 9 7 7 6 4 5 8 10 11 9 9 10 9 12 12 12 12 12 13 14 14 14 12 11 7 5 1 3 4 5 7 6 6 6 6 5 6 7 7 6 6 7 7 6 6 5 5 5 4 6 6 6 6 6 6 7 7 8 8 9 9 9 9 9 9 10 10 10 11 11
7 7 9 8 7 7 6 6 6 5 6 6 6 7 7 6 6 6 6 6 6 6 6 6 9 12 7 7 9 12 12 11 11 12 13 14 13 13 11 7 4 4 4 5 5 7 5 5 6 6 5 6 7 7 6 6 6 7 6 5 5 5 5 5 5 5 5 6 6 6 6 7 8 8 9 9 9 9 9 9 10 10 10 11 11
7 7 7 7 5 5 5 5 5 5 5 5 5 5 6 7 8 7 5 4 5 6 6 6 6 9 14 13 10 9 9 9 10 11 12 13 13 12 6 4 5 5 5 6 6 6 6 4 4 4 4 6 6 6 6 6 7 6 4 5 5 5 5 5 4 4 5 6 6 6 7 7 7 8 8 9 9 9 9 9 10 10 11 10 11
6 6 6 6 4 4 4 4 4 4 5 5 5 5 5 6 6 5 4 4 5 6 7 8 8 7 7 6 8 9 8 9 9 10 9 10 9 6 3 6 6 4 4 4 4 5 5 5 5 5 5 5 6 6 6 7 7 5 4 5 4 5 5 4 4 5 6 6 6 6 6 7 7 8 8 9 9 9 9 9 10 10 10 12 13
5 5 5 6 4 5 5 5 6 8 6 5 4 4 5 5 5 4 4 4 6 6 7 7 8 8 7 6 7 5 6 9 12 10 7 5 4 5 6 5 4 4 4 4 4 4 5 5 5 5 5 5 6 6 7 6 5 5 5 4 4 5 1 5 6 6 6 6 6 5 6 6 7 7 8 8 8 9 9 10 10 10 10 11 10
6 11 11 7 3 4 5 6 7 6 5 5 4 4 3 3 4 4 4 5 6 6 6 7 7 8 8 9 8 9 10 7 7 7 7 7 7 7 6 5 4 4 4 3 5 5 5 5 4 4 5 6 6 5 6 5 4 5 4 5 5 4 5 5 3 4 5 5 5 5 6 6 7 7 8 8 8 9 9 10 10 10 11 11 10
5 6 6 6 5 5 5 5 6 5 4 3 3 3 4 4 4 4 4 5 5 5 6 6 7 7 9 11 9 10 9 8 7 7 8 8 7 7 6 5 4 5 4 5 4 4 5 5 3 4 5 5 6 5 4 4 5 4 4 5 5 4 4 4 4 4 4 4 5 5 6 6 7 7 8 7 8 9 9 10 9 10 10 10 10
5 6 7 5 6 6 6 6 5 4 4 4 4 3 4 3 3 3 3 3 4 4 4 5 6 6 8 10 12 12 8 7 7 7 7 7 7 7 5 5 5 4 5 5 5 5 5 5 5 4 6 5 4 4 4 4 4 5 5 4 4 4 4 4 3 4 4 5 5 6 6 6 7 7 8 8 9 9 9 9 9 9 10 10 10
7 7 7 7 6 6 6 6 6 6 5 5 4 4 4 3 3 2 3 3 4 4 4 4 4 4 9 13 13 12 8 7 7 7 7 7 7 6 5 5 4 4 5 5 5 4 5 4 4 4 4 4 4 4 4 4 4 4 4 4 4 3 4 4 3 3 5 5 5 5 6 7 7 8 8 8 8 8 9 9 9 9 9 10 10
8 7 7 6 6 6 6 7 6 6 5 5 5 4 4 3 3 3 4 4 3 4 4 4 4 5 7 7 9 8 7 6 6 7 7 7 6 6 6 5 5 4 5 4 4 4 4 4 5 5 5 4 3 3 3 4 3 4 4 4 3 3 3 4 4 4 4 4 5 5 6 7 7 7 7 7 8 8 8 9 9 9 10 10 10
6 6 6 6 7 7 6 6 6 5 5 6 5 4 4 3 2 3 3 2 3 4 3 3 3 4 7 6 6 7 7 7 7 6 7 6 7 6 5 5 5 4 4 4 4 4 5 4 4 5 3 3 2 2 3 3 3 3 4 3 4 3 4 4 3 3 4 5 5 6 6 6 6 7 7 7 8 8 8 9 9 9 10 9 10
7 7 7 7 6 6 6 6 6 6 7 6 5 4 5 4 4 4 4 4 3 2 2 2 3 5 6 6 7 8 8 7 7 7 7 7 7 5 3 1 2 3 4 5 4 5 4 5 4 3 4 4 2 3 3 2 2 3 3 3 4 3 3 2 3 3 4 5 5 6 6 6 6 6 6 7 8 8 8 9 9 9 10 9 9
6 6 6 6 6 6 6 6 6 6 6 5 5 5 4 3 2 2 2 1 2 3 2 3 2 3 4 5 6 8 8 8 8 8 7 5 4 4 5 5 5 5 5 5 5 4 4 3 3 4 5 4 2 3 2 2 3 2 2 2 3 3 3 3 3 3 4 4 5 6 6 6 6 6 6 7 7 7 8 8 8 9 9 10 9
7 6 6 6 5 6 5 5 5 4 4 3 3 3 3 2 2 2 1 2 2 2 2 3 3 4 4 5 6 7 8 9 8 7 6 7 8 7 7 6 6 5 5 5 4 5 5 4 6 5 4 4 3 3 3 3 3 3 3 2 1 3 3 3 3 4 4 5 5 6 6 6 6 6 6 7 7 7 8 8 8 9 9 9 9
5 5 5 4 5 5 5 5 5 4 4 4 3 3 3 2 2 1 1 3 3 3 3 2 3 4 4 4 5 5 6 7 7 8 7 8 8 7 7 6 6 6 5 5 5 6 6 5 5 5 5 4 4 4 3 3 2 2 2 3 1 3 7 6 5 5 4 5 6 6 6 6 6 6 6 7 7 7 7 8 8 8 8 8 8
3 4 4 4 4 5 5 5 5 4 4 4 4 3 3 2 1 1 2 1 2 2 4 4 4 4 4 4 5 5 5 6 6 6 7 7 8 7 7 6 6 5 6 6 6 6 6 5 4 6 5 5 4 4 4 3 3 3 2 1 7 8 5 5 5 5 9 7 7 7 6 6 5 6 6 6 6 6 7 7 7 8 8 8 8
4 5 5 5 5 4 4 4 4 4 3 3 2 2 3 2 2 2 2 3 3 4 4 4 5 5 5 5 5 5 6 6 6 6 6 6 7 7 7 7 7 6 6 6 6 6 6 6 6 6 6 5 5 4 4 4 3 3 2 7 8 6 4 1 5 7 7 5 7 6 6 5 6 6 6 6 6 7 6 7 7 8 7 7 8
4 5 5 5 5 5 5 4 4 3 3 2 2 1 1 1 0 0 0 1 2 3 3 4 5 5 6 6 5 6 6 6 6 6 7 7 7 7 7 7 7 7 7 6 6 6 6 7 6 7 6 6 5 5 5 4 4 3 9 9 7 6 3 3 3 1 3 7 7 7 6 5 5 5 5 5 6 6 7 8 7 7 7 7 7
Wind_Direction
197 197 194 196 194 193 192 194 192 191 191 191 195 196 189 183 185 185 183 190 187 184 190 194 194 196 193 193 201 200 205 210 207 210 213 217 224 240 252 245 238 240 241 247 249 250 253 261 267 269 271 271 268 270 275 282 279 276 278 277 275 276 275 278 283 288 292 294 296 295 298 298 293 289 285 285 286 288 280 277 278 279 281 280 281
199 195 192 190 194 191 189 193 191 191 193 192 195 192 184 178 180 178 186 187 184 187 190 189 191 198 200 197 201 209 210 216 217 215 220 221 228 232 237 238 241 243 246 246 248 253 260 263 265 266 262 260 255 261 268 281 286 280 273 269 276 279 272 278 279 284 288 295 293 295 291 293 293 288 289 291 293 292 290 290 287 287 285 285 287
195 190 187 189 192 194 194 189 189 192 193 192 196 192 183 180 175 179 188 184 182 192 187 186 177 182 201 192 200 211 214 220 221 225 225 225 231 236 240 242 241 242 238 241 248 255 258 259 260 257 250 240 241 258 274 278 279 281 283 284 283 283 284 277 279 281 286 286 293 295 294 296 289 289 286 288 287 286 288 288 290 291 287 285 283
191 183 185 192 191 186 186 191 194 193 193 189 186 196 199 186 181 185 189 189 185 192 187 178 174 183 182 177 181 193 209 221 223 225 226 229 231 234 240 246 247 243 246 251 252 251 255 257 257 257 251 246 252 265 272 267 268 275 277 280 275 279 283 278 269 271 283 290 283 290 296 297 292 287 285 281 283 286 286 286 281 281 286 288 286
191 186 191 192 187 188 191 192 193 195 196 191 187 193 198 189 181 184 186 193 188 175 170 170 179 178 188 186 176 183 210 222 226 228 228 229 231 235 238 241 244 245 248 251 253 258 260 258 255 252 249 251 256 259 263 267 270 273 275 279 278 281 281 276 275 270 274 279 284 283 290 289 289 284 279 282 280 278 280 284 290 292 291 290 289
194 189 194 196 191 188 190 192 196 199 199 198 194 197 203 198 182 177 181 185 174 171 176 184 186 183 183 180 183 187 200 216 221 226 230 229 227 233 238 240 243 246 248 249 252 252 253 252 250 248 247 248 256 260 264 266 266 268 277 281 285 286 286 284 280 274 273 276 276 285 287 289 290 287 286 279 283 288 286 282 279 279 284 285 284
195 194 198 197 191 190 191 196 197 198 199 195 187 199 203 196 176 171 176 178 171 183 186 182 179 173 180 186 190 191 195 210 217 217 224 230 229 232 239 240 242 246 247 250 254 253 252 249 247 248 248 247 253 259 261 266 268 277 275 281 285 289 290 290 288 281 278 277 273 283 287 283 281 286 284 282 286 286 287 290 289 290 285 284 285
193 196 198 199 193 194 193 194 194 188 184 187 185 186 192 185 170 168 173 178 182 184 180 175 170 178 184 187 196 201 204 212 211 211 216 221 226 233 236 241 245 246 248 250 253 255 252 249 246 246 245 246 252 255 260 264 270 267 273 280 289 291 293 295 291 287 284 280 283 290 288 290 287 281 280 276 279 281 284 294 295 295 294 294 291
192 194 196 198 198 195 192 190 178 170 178 183 177 173 176 167 163 166 172 181 186 184 176 171 170 185 184 188 196 204 207 211 214 209 211 216 228 236 237 241 246 250 253 253 252 252 254 254 254 256 255 250 242 263 284 316 283 275 279 281 287 292 292 291 289 288 285 285 289 291 290 288 289 290 287 285 291 296 300 297 294 294 294 293 291
190 193 196 199 194 182 179 175 170 171 174 147 103 111 160 174 172 176 177 179 175 171 172 174 183 191 191 187 194 203 211 213 201 198 206 222 227 234 240 244 249 251 253 254 254 253 253 254 254 254 260 229 206 220 234 240 238 259 273 278 285 289 288 288 286 285 288 287 288 292 292 292 296 295 293 292 293 295 294 297 296 298 298 294 291
190 193 198 197 187 175 176 180 173 174 173 151 149 165 148 165 186 184 180 181 175 169 172 181 191 194 196 192 195 204 209 211 186 187 199 212 226 239 246 247 250 251 249 251 254 254 258 262 261 252 214 218 220 221 231 229 230 232 245 262 272 275 283 282 280 284 287 289 289 287 287 288 288 291 292 294 295 299 301 300 297 299 297 297 297
193 195 197 194 186 176 178 182 182 177 172 173 167 173 162 183 196 195 187 181 174 173 181 189 193 196 200 205 203 205 210 198 181 188 198 206 214 232 243 249 252 252 252 251 253 254 253 268 270 263 259 258 267 247 226 225 228 227 232 237 241 242 247 258 272 279 283 288 290 288 288 285 288 292 293 297 302 306 302 298 297 298 296 294 295
192 195 195 194 187 178 181 184 188 181 173 177 169 177 181 184 187 194 193 183 176 185 192 192 194 197 204 207 213 212 215 185 183 190 199 205 209 218 240 249 252 254 256 257 258 257 249 252 320 343 297 274 260 253 257 232 206 216 224 226 233 237 233 230 239 256 281 278 281 284 279 284 288 291 296 299 303 300 302 298 299 297 295 293 292
192 194 194 192 187 180 179 183 188 185 174 179 175 179 187 192 195 195 185 181 186 193 196 198 196 199 204 212 219 222 220 184 179 189 198 202 206 205 238 241 247 253 258 265 265 267 1 8 245 265 283 283 284 276 258 254 258 228 226 238 257 238 222 220 224 228 238 261 273 278 279 280 286 295 295 297 297 298 299 298 299 296 295 290 290
192 191 192 188 183 179 177 181 188 188 189 180 180 184 191 198 198 193 186 186 189 194 195 192 198 204 205 211 221 224 225 186 176 183 192 198 203 206 232 236 245 248 250 253 255 247 216 200 233 256 274 276 261 263 254 261 263 268 278 286 282 289 292 278 251 235 235 250 263 270 283 286 294 303 307 305 302 301 298 295 291 289 288 286 283
188 188 187 183 182 180 177 181 186 186 196 194 188 186 191 195 196 194 184 175 179 182 186 199 205 211 211 213 227 232 231 172 175 177 184 197 186 206 224 231 243 253 253 251 244 266 255 231 229 238 247 255 174 95 31 295 278 279 281 279 279 282 284 288 94 314 292 292 287 290 297 304 302 291 288 292 294 291 287 281 279 278 279 284 284
190 187 187 183 181 179 179 182 184 186 192 202 195 189 190 195 198 193 187 187 187 192 198 203 222 231 227 217 227 241 243 175 171 175 185 177 167 209 206 219 236 246 253 264 281 289 311 318 302 289 275 270 123 123 114 301 270 277 277 277 283 286 287 294 177 207 230 228 249 260 259 263 270 271 270 265 258 271 291 289 275 276 280 288 290
187 185 185 181 177 178 180 183 184 189 186 202 202 193 191 191 202 188 186 188 195 198 201 211 219 229 231 232 234 241 244 179 166 170 182 169 180 190 192 208 218 208 228 256 254 222 240 251 236 256 269 257 130 127 139 184 265 273 274 278 283 286 287 293 298 243 198 221 232 239 246 252 258 259 259 259 256 239 259 279 284 292 289 288 290
181 181 179 174 172 173 180 183 188 190 196 208 210 203 189 188 196 195 191 192 196 190 199 215 225 229 227 224 226 232 237 179 162 167 169 163 178 190 180 200 196 227 226 218 234 265 264 261 226 229 277 100 131 131 162 221 264 266 271 278 280 286 292 304 292 293 302 297 277 265 264 254 251 260 268 244 232 226 232 259 280 282 286 290 293
171 170 169 167 169 175 179 183 187 188 189 198 206 207 213 212 204 203 195 188 196 197 200 211 218 222 225 225 221 222 229 181 163 160 168 172 181 180 180 180 202 197 183 213 256 258 253 254 214 199 135 134 123 144 181 223 261 263 269 278 280 279 305 297 296 299 294 291 291 290 286 288 285 281 283 289 280 265 267 271 277 283 287 290 291
154 156 160 165 171 178 180 183 186 186 187 188 201 205 208 206 201 200 204 201 202 204 208 220 226 225 228 232 223 211 211 182 157 170 177 174 176 184 181 186 166 167 182 227 232 245 239 232 263 143 159 149 155 167 187 205 253 269 262 269 316 5 345 289 292 292 287 285 285 286 289 290 295 295 290 290 288 291 289 286 287 285 286 288 288
145 150 159 169 175 182 183 182 183 181 182 194 198 207 206 202 195 190 198 195 197 198 208 220 225 227 220 211 208 199 176 117 124 100 101 120 163 212 155 136 125 151 211 246 245 248 229 223 236 143 153 156 167 176 185 211 232 242 315 37 14 1 333 292 289 280 279 290 293 294 296 298 297 301 299 294 292 293 296 295 294 294 290 286 286
145 151 158 170 180 184 183 177 175 176 174 184 194 193 196 194 178 177 196 197 195 198 207 218 222 217 202 182 183 187 151 111 131 145 148 153 166 177 147 142 151 221 243 247 234 233 233 172 102 137 157 162 174 187 210 220 221 238 26 355 19 331 279 274 276 285 289 290 293 294 294 293 298 301 298 300 299 302 302 298 295 291 286 282 279
148 151 158 169 174 180 178 178 180 176 178 179 190 183 184 183 173 175 191 201 200 204 203 210 210 195 182 184 188 175 157 127 121 116 118 132 151 163 168 180 204 231 243 246 244 243 208 190 131 142 156 168 185 213 219 210 217 59 211 272 266 259 268 271 270 278 285 290 289 292 295 296 294 292 297 303 305 305 299 293 287 283 282 283 282
150 150 154 161 173 169 183 194 195 201 199 188 186 186 176 177 176 182 193 199 201 202 202 202 207 201 193 186 179 171 145 129 133 127 141 149 157 164 172 187 196 286 244 233 251 63 77 93 121 145 157 181 201 206 202 221 253 271 256 245 249 261 250 266 287 292 289 289 291 290 291 292 296 296 298 302 302 295 288 287 289 289 286 283 284
149 149 155 164 170 173 175 186 192 198 188 178 188 191 183 182 188 193 209 216 213 207 210 205 196 199 200 175 165 146 146 156 157 142 143 151 148 133 140 152 166 212 335 60 79 91 96 113 135 151 164 176 183 189 216 207 200 223 230 233 252 252 259 277 278 280 283 286 290 290 293 298 298 304 305 295 291 293 297 295 297 296 297 297 298
141 145 149 158 162 163 167 176 179 182 178 180 193 194 189 192 195 205 220 225 207 202 202 200 199 185 181 157 144 140 154 168 166 173 176 153 137 153 148 147 151 187 204 169 150 153 149 168 90 75 31 181 245 326 329 113 175 207 227 228 241 254 259 252 265 276 283 285 286 290 298 301 302 297 291 294 292 292 298 300 297 299 302 305 304
143 146 150 149 155 157 162 155 175 178 178 186 189 192 195 201 200 206 222 212 200 193 205 187 184 173 173 158 142 146 164 175 181 173 171 160 162 159 162 164 178 194 209 198 197 174 137 121 145 178 166 197 224 236 239 247 252 263 271 273 272 268 277 292 277 263 261 277 287 292 291 293 292 297 300 298 300 303 304 300 301 301 304 307 305
141 144 143 146 149 159 160 161 181 180 179 175 62 34 327 218 229 190 62 23 349 205 181 181 184 176 166 154 161 172 184 190 197 172 166 177 174 168 178 188 186 194 62 65 159 189 235 246 248 230 231 240 248 245 244 232 240 264 271 273 272 263 256 259 272 278 284 285 290 296 296 296 298 300 298 299 302 303 302 303 301 298 305 304 305
146 140 145 150 152 159 166 167 182 175 177 143 124 97 64 60 44 31 77 33 34 27 14 76 158 161 153 158 161 182 190 197 149 156 160 147 92 70 64 64 57 81 103 71 311 248 244 239 247 252 246 244 244 244 253 260 250 238 262 237 242 266 270 278 277 280 294 295 290 288 294 299 296 300 303 304 305 303 305 300 300 302 308 313 316
141 135 138 155 150 160 164 170 173 180 179 142 146 124 111 55 49 45 53 43 25 24 50 42 31 22 35 155 86 36 31 124 138 149 145 126 102 94 90 92 100 112 131 143 202 228 243 253 257 251 238 243 249 258 258 261 273 281 277 286 287 271 253 260 277 302 300 292 292 291 294 296 299 301 303 306 307 306 305 307 307 304 311 316 313
137 138 148 138 137 164 169 167 167 171 160 164 168 152 121 122 91 43 37 48 51 51 49 56 51 46 4 48 141 105 54 112 133 132 127 114 107 101 99 101 108 122 109 351 241 241 255 254 241 240 247 254 261 268 278 282 280 276 281 276 269 280 288 288 331 306 293 289 289 298 298 296 299 304 305 306 305 303 308 312 312 315 316 320 318
136 138 126 126 147 178 165 152 159 165 169 172 177 178 170 168 166 145 64 47 57 59 52 50 61 74 95 86 66 105 129 130 123 122 119 116 111 110 104 98 103 110 123 192 226 246 242 246 260 261 261 264 272 274 271 271 280 282 281 281 281 285 293 324 317 279 278 284 297 289 294 299 303 306 303 305 307 309 311 310 315 316 318 321 324
137 138 140 148 151 152 154 158 167 168 173 178 179 180 187 193 178 140 136 140 106 86 76 67 66 78 63 83 110 112 120 126 127 123 121 121 122 118 108 97 93 349 302 256 235 238 252 253 255 260 270 274 277 278 275 273 274 281 285 281 286 290 291 284 271 268 277 287 286 296 298 306 312 307 309 310 308 310 309 315 319 321 325 327 327
135 108 127 153 159 164 167 165 172 169 168 180 182 184 182 160 149 163 179 180 167 149 144 103 56 31 66 84 99 118 124 128 128 127 123 122 121 127 126 132 144 180 210 235 249 262 261 244 257 269 270 268 267 273 275 274 274 275 280 282 289 289 292 287 283 300 303 296 290 292 315 309 302 304 308 308 314 313 315 319 322 323 325 326 327
141 146 150 168 170 168 158 158 156 158 164 173 177 183 173 166 170 176 174 167 154 138 126 102 87 63 65 64 77 93 105 116 123 125 127 131 146 161 167 159 178 187 193 209 231 246 258 264 259 257 251 255 269 274 270 270 270 277 282 292 286 289 286 282 287 299 305 295 294 302 302 297 305 309 309 311 310 313 317 323 322 323 323 325 327
144 144 155 164 163 150 133 138 148 147 147 158 164 167 172 176 177 170 169 176 150 143 123 122 120 105 94 93 86 82 95 108 112 116 128 147 173 210 211 206 218 207 230 229 230 245 252 249 245 260 267 268 267 266 271 276 281 277 266 271 297 290 280 310 329 316 295 294 300 303 304 306 309 310 313 313 313 316 320 323 320 320 322 323 317
123 138 154 142 140 121 135 135 114 112 143 151 157 167 174 174 178 180 171 151 145 137 135 142 144 141 150 140 168 150 116 116 114 107 111 124 177 209 222 251 290 271 203 218 230 243 243 247 250 249 254 258 260 271 285 286 275 274 279 267 251 249 349 290 245 249 267 278 290 306 305 309 310 312 314 311 315 320 324 322 323 324 323 324 326
97 64 71 77 119 156 152 143 144 166 158 178 170 181 167 158 155 158 146 141 150 146 144 151 161 164 157 149 161 144 149 159 171 163 167 175 186 201 214 222 222 240 243 219 181 223 246 250 255 262 268 270 287 289 272 265 273 282 291 285 269 249 210 250 260 274 282 296 306 309 310 313 314 316 314 312 321 328 322 321 323 327 325 329 329
132 146 126 143 151 140 146 144 151 155 149 167 153 153 150 154 154 149 154 150 157 153 156 158 170 173 157 162 163 168 185 177 180 177 179 180 187 193 212 229 224 226 218 241 233 227 242 255 242 256 252 257 271 265 261 271 270 266 251 250 260 253 253 262 280 285 295 314 307 308 311 313 315 315 314 319 330 323 318 322 325 325 327 326 328
124 117 134 144 105 134 132 145 152 155 148 140 126 135 118 112 110 122 139 146 151 170 177 184 183 182 171 168 164 177 187 184 185 183 179 189 190 208 220 224 230 228 234 240 239 247 255 261 250 246 273 285 252 238 246 259 270 263 254 252 246 256 268 268 277 285 303 298 304 312 315 314 318 319 317 327 318 314 323 323 326 329 329 331 333
123 126 127 128 143 134 121 116 105 94 97 103 111 112 114 122 119 139 153 184 185 196 193 194 181 167 129 142 161 190 209 200 201 206 204 199 208 208 212 222 226 233 237 238 234 237 248 257 271 267 259 232 232 245 253 258 258 258 252 247 256 263 274 279 285 309 298 299 304 313 317 316 311 305 310 318 320 329 325 329 331 330 334 332 337
126 129 127 134 130 127 121 115 122 126 128 124 111 101 101 109 148 154 175 199 215 203 211 192 171 149 134 154 161 187 227 217 200 211 214 208 210 207 207 217 224 216 231 248 249 222 223 236 245 255 251 233 238 251 260 262 259 262 254 252 263 271 274 287 292 288 295 304 307 316 308 304 312 317 323 326 328 328 329 329 331 335 335 333 341
125 122 117 113 110 115 121 125 123 120 118 102 111 124 148 159 160 220 241 209 213 220 217 196 184 154 132 142 155 199 216 221 212 210 215 216 217 214 198 203 221 223 221 222 218 227 251 239 240 248 244 235 218 254 274 274 263 263 273 268 258 272 290 288 292 301 313 319 318 307 306 313 312 311 323 333 330 329 328 335 332 339 334 336 341
117 118 119 119 117 114 105 104 105 105 114 129 153 158 181 206 204 200 206 187 185 218 225 174 182 177 149 155 183 199 206 211 216 217 215 222 231 223 226 137 144 210 222 206 205 200 241 268 269 242 225 221 198 223 238 237 254 265 271 276 282 264 257 288 309 320 315 306 306 308 310 315 319 321 330 332 326 328 332 335 335 334 334 337 342
114 110 110 110 109 110 121 127 139 152 166 164 163 165 164 160 149 154 177 239 238 209 200 211 210 206 208 192 187 199 206 206 205 217 220 214 181 177 182 191 192 195 201 202 183 191 212 212 220 232 235 231 209 224 211 216 234 240 269 278 274 287 309 301 299 299 299 304 310 310 313 315 317 325 330 320 324 331 334 329 332 337 336 335 343
124 125 128 136 132 139 141 152 164 152 148 137 137 131 140 124 113 112 76 22 326 286 254 216 221 230 226 220 207 195 199 209 215 213 193 196 211 211 194 193 191 196 192 189 182 182 198 219 246 244 236 234 209 215 243 216 217 215 217 241 256 275 270 305 311 310 305 304 302 304 318 312 315 317 325 327 325 332 331 332 336 335 335 339 338
146 148 144 142 147 147 144 146 130 151 138 128 114 102 96 110 131 132 143 155 191 215 231 226 227 232 232 231 229 232 226 225 214 214 197 203 208 207 207 199 194 192 190 180 188 190 208 215 230 237 229 212 222 220 215 231 224 236 230 230 233 36 36 1 295 288 308 323 310 302 300 305 315 320 326 323 324 331 329 339 336 340 333 338 342
148 133 143 153 148 143 147 144 151 146 129 134 132 159 145 167 125 180 181 210 253 246 259 260 253 250 244 243 247 239 232 238 237 221 218 211 207 202 195 198 191 194 191 189 188 194 199 221 212 221 223 204 208 218 211 216 218 205 214 205 81 76 68 18 315 325 337 305 284 288 292 298 313 316 315 313 323 324 336 338 337 333 329 338 343
128 136 138 140 151 144 140 145 146 138 139 157 152 172 139 216 216 219 272 284 284 271 265 258 256 255 256 256 244 244 241 233 227 228 216 206 203 198 199 186 188 189 198 191 196 187 199 196 193 200 199 204 201 207 214 208 205 209 167 85 94 95 83 347 273 290 291 293 303 304 306 305 312 316 319 323 327 326 338 340 335 331 332 339 346
141 148 152 156 148 149 157 156 153 146 146 165 152 136 123 178 66 124 249 249 262 278 284 279 273 267 259 255 254 251 243 241 234 225 223 212 195 201 200 187 188 190 199 198 196 193 196 198 195 198 202 202 205 202 213 197 209 112 91 104 116 114 140 297 287 108 303 298 292 290 290 309 311 313 317 333 334 334 336 321 330 331 335 342 346